Location: Newark
(40.9833°N, 0.0333°W)
Time: 01:03:05
(UTC+00:00)

Altair - Pass Details

Date: 01 November 2020
Orbit: 1502 x 1682 km, 47.2° (Epoch: 02 December)

Event Time Altitude Azimuth Distance (km) Brightness Sun altitude
Rises 12:31:25 0° 289° (WNW) 4,812 10.1 33.3°
Reaches altitude 10° 12:36:00 10° 271° (W) 3,856 9.9 33.0°
Maximum altitude 12:41:32 17° 236° (SW) 3,379 10.3 32.8°
Drops below altitude 10° 12:47:09 10° 201° (SSW) 3,910 11.2 32.4°
Sets 12:51:55 0° 182° (S) 4,910 11.1 32.1°
